GW0980 Weather Reports


Display with metric or nautical units.
time (UTC)temp
F
wind
direction
speed
MPH
gust
MPH
rain 1hr
in
rain 24hr
in
rain mn
in
humidity
%
barometer
mb
20260507213037 70 0 0.0 3.0 0.00 0.00 0.00 52 1018.8
20260507211543 70 0 0.0 3.0 0.00 0.00 0.00 53 1018.8
20260507210044 69 0 1.0 6.0 0.00 0.00 0.00 53 1018.9
20260507204542 69 22 1.0 6.0 0.00 0.00 0.00 54 1019.1
20260507203040 69 0 0.0 6.0 0.00 0.00 0.00 54 1019.3
20260507201542 68 307 1.0 3.0 0.00 0.00 0.00 55 1019.4
20260507200045 68 0 0.0 4.0 0.00 0.00 0.00 55 1019.5
20260507194547 67 128 0.0 5.0 0.00 0.00 0.00 57 1019.7
20260507193042 66 86 0.0 5.0 0.00 0.00 0.00 58 1019.8
20260507191538 66 0 0.0 4.0 0.00 0.00 0.00 57 1019.8
20260507190038 65 150 0.0 6.0 0.00 0.00 0.00 59 1020.0
20260507184538 64 0 0.0 3.0 0.00 0.00 0.00 60 1020.2
20260507183049 63 25 0.0 3.0 0.00 0.00 0.00 60 1020.3
20260507181544 62 105 1.0 3.0 0.00 0.00 0.00 63 1020.4
20260507180052 60 0 0.0 3.0 0.00 0.00 0.00 68 1020.4
20260507174538 58 0 0.0 0.0 0.00 0.00 0.00 70 1020.6
20260507173042 58 0 0.0 1.0 0.00 0.00 0.00 71 1020.8
20260507171600 57 0 0.0 1.0 0.00 0.00 0.00 72 1020.8
20260507170047 56 0 0.0 1.0 0.00 0.00 0.00 74 1020.7
20260507164547 56 299 0.0 1.0 0.00 0.00 0.00 74 1020.7
20260507163048 56 0 0.0 2.0 0.00 0.00 0.00 76 1020.7
20260507161543 55 138 0.0 2.0 0.00 0.00 0.00 79 1020.9
20260507160046 55 0 0.0 1.0 0.00 0.00 0.00 78 1020.8
20260507154546 54 0 0.0 1.0 0.00 0.00 0.00 80 1020.9
20260507153045 53 0 0.0 1.0 0.00 0.00 0.00 83 1020.9
20260507151544 52 299 0.0 2.0 0.00 0.00 0.00 83 1021.0
20260507150038 52 0 0.0 2.0 0.00 0.00 0.00 83 1021.1
20260507144551 52 298 1.0 3.0 0.00 0.00 0.00 83 1021.0
20260507143042 51 285 1.0 4.0 0.00 0.00 0.00 83 1021.0
20260507141543 51 302 1.0 6.0 0.00 0.00 0.00 83 1020.9
20260507140053 51 285 1.0 2.0 0.00 0.00 0.00 84 1020.7
20260507134543 51 278 0.0 2.0 0.00 0.00 0.00 84 1020.7
20260507133042 51 0 0.0 1.0 0.00 0.00 0.00 85 1020.5
20260507131538 51 273 0.0 1.0 0.00 0.00 0.00 85 1020.6
20260507130049 51 292 1.0 4.0 0.00 0.00 0.00 85 1020.7
20260507124600 51 278 2.0 5.0 0.00 0.00 0.00 85 1020.7
20260507123043 51 266 1.0 2.0 0.00 0.00 0.00 85 1020.8
20260507121543 51 0 0.0 3.0 0.00 0.00 0.00 85 1020.9
20260507120043 51 298 0.0 2.0 0.00 0.00 0.00 85 1020.9
20260507114558 51 290 0.0 2.0 0.00 0.00 0.00 84 1021.0
20260507113040 51 280 2.0 5.0 0.00 0.00 0.00 84 1021.3
20260507111545 51 284 2.0 4.0 0.00 0.00 0.00 83 1021.1
20260507110047 52 278 2.0 5.0 0.00 0.00 0.00 83 1021.2
20260507104550 52 282 2.0 5.0 0.00 0.00 0.00 84 1021.3
20260507103041 52 273 2.0 7.0 0.00 0.00 0.00 84 1021.3
20260507101539 52 272 2.0 5.0 0.00 0.00 0.00 84 1021.5
20260507100048 52 278 1.0 6.0 0.00 0.00 0.00 84 1021.4
20260507094537 52 273 2.0 5.0 0.00 0.00 0.00 83 1021.5
20260507093044 52 278 2.0 6.0 0.00 0.00 0.00 83 1021.7
20260507091544 52 276 2.0 6.0 0.00 0.00 0.00 83 1021.8
20260507090246 52 282 2.0 8.0 0.00 0.00 0.00 83 1021.9
20260507084542 52 282 3.0 6.0 0.00 0.00 0.00 82 1021.9
20260507083038 52 256 4.0 5.0 0.00 0.00 0.00 82 1021.9
20260507081536 52 281 2.0 5.0 0.00 0.00 0.00 82 1021.9
20260507080044 52 297 4.0 6.0 0.00 0.00 0.00 82 1021.9
20260507074545 52 276 5.0 8.0 0.00 0.00 0.00 82 1021.8
20260507073046 52 269 3.0 7.0 0.00 0.00 0.00 83 1021.9
20260507071538 52 269 5.0 9.0 0.00 0.00 0.00 82 1021.9
20260507070052 52 281 4.0 7.0 0.00 0.00 0.00 82 1021.8
20260507064537 53 258 4.0 9.0 0.00 0.00 0.00 82 1021.9
20260507063054 52 281 5.0 8.0 0.00 0.00 0.00 83 1021.9
20260507061546 53 276 5.0 11.0 0.00 0.00 0.00 82 1022.0
20260507060046 53 281 5.0 8.0 0.00 0.00 0.00 83 1022.0
20260507054542 52 248 5.0 9.0 0.00 0.00 0.00 83 1021.9
20260507053039 53 269 6.0 11.0 0.00 0.00 0.00 83 1021.9
20260507051537 53 256 6.0 13.0 0.00 0.00 0.00 83 1021.9
20260507050044 53 267 7.0 12.0 0.00 0.00 0.00 83 1021.9
20260507044544 53 276 6.0 12.0 0.00 0.00 0.00 83 1021.9
20260507043039 53 264 6.0 11.0 0.00 0.00 0.00 82 1022.1
20260507041538 53 273 6.0 14.0 0.00 0.00 0.00 82 1021.9
20260507040037 53 272 7.0 14.0 0.00 0.00 0.00 82 1021.7
20260507034545 53 270 6.0 11.0 0.00 0.00 0.00 82 1021.6
20260507033042 54 268 7.0 17.0 0.00 0.00 0.00 81 1021.6
20260507031542 54 264 7.0 15.0 0.00 0.00 0.00 81 1021.5
20260507030042 54 271 7.0 13.0 0.00 0.00 0.00 80 1021.3
20260507024538 54 278 8.0 11.0 0.00 0.00 0.00 80 1021.3
20260507023037 55 274 7.0 14.0 0.00 0.00 0.00 79 1021.1
20260507021545 55 269 8.0 13.0 0.00 0.00 0.00 79 1021.3
20260507020044 55 271 8.0 15.0 0.00 0.00 0.00 78 1021.1
20260507014549 56 312 7.0 19.0 0.00 0.00 0.00 76 1021.4
20260507013048 57 280 8.0 18.0 0.00 0.00 0.00 75 1021.4
20260507011540 57 290 11.0 15.0 0.00 0.00 0.00 74 1021.5
20260507010052 58 266 9.0 14.0 0.00 0.00 0.00 74 1021.5
20260507004537 58 290 6.0 12.0 0.00 0.00 0.00 74 1021.5
20260507003039 58 269 10.0 17.0 0.00 0.00 0.00 73 1021.3
20260507001552 59 267 9.0 21.0 0.00 0.00 0.00 72 1021.3
20260507000042 59 255 10.0 16.0 0.00 0.00 0.00 71 1021.2
20260506234539 60 270 8.0 14.0 0.00 0.00 0.00 70 1021.3
20260506233100 60 264 7.0 14.0 0.00 0.00 0.00 71 1021.3
20260506231544 60 263 9.0 20.0 0.00 0.00 0.00 71 1021.3
20260506230048 60 257 9.0 16.0 0.00 0.00 0.00 70 1021.3
20260506224543 61 281 10.0 16.0 0.00 0.00 0.00 70 1021.3
20260506223038 61 278 9.0 26.0 0.00 0.00 0.00 69 1021.4
20260506221545 61 262 8.0 12.0 0.00 0.00 0.00 68 1021.3
20260506220042 61 269 10.0 19.0 0.00 0.00 0.00 69 1021.1
20260506214552 61 271 10.0 17.0 0.00 0.00 0.00 69 1021.0